| time (UTC) | temp F | wind direction | speed MPH | gust MPH | rain 1hr in | rain 24hr in | rain mn in | humidity % | barometer mb |
| 20260831115110 | 67 | 0.0 | 0.0 | 0.00 | 0.00 | 0.00 | 89 | 1021.5 | |
| 20260831114106 | 67 | 0.0 | 0.0 | 0.00 | 0.00 | 0.00 | 88 | 1021.4 | |
| 20260831113103 | 67 | 0.0 | 0.0 | 0.00 | 0.00 | 0.00 | 88 | 1021.5 | |
| 20260831112059 | 67 | 0.0 | 0.0 | 0.00 | 0.00 | 0.00 | 87 | 1021.3 | |
| 20260831111116 | 67 | 0.0 | 0.0 | 0.00 | 0.00 | 0.00 | 88 | 1021.4 | |
| 20260831110053 | 67 | 0.0 | 0.0 | 0.00 | 0.00 | 0.00 | 88 | 1021.3 | |
| 20260831105049 | 67 | 0.0 | 0.0 | 0.00 | 0.00 | 0.00 | 88 | 1021.2 | |
| 20260831104046 | 67 | 0.0 | 0.0 | 0.00 | 0.00 | 0.00 | 87 | 1021.1 | |
| 20260831103042 | 67 | 0.0 | 0.0 | 0.00 | 0.00 | 0.00 | 86 | 1021.0 | |
| 20260831102039 | 67 | 0.0 | 0.0 | 0.00 | 0.00 | 0.00 | 87 | 1021.0 | |
| 20260831101035 | 67 | 0.0 | 0.0 | 0.00 | 0.00 | 0.00 | 87 | 1020.8 | |
| 20260831100052 | 68 | 0.0 | 0.0 | 0.00 | 0.00 | 0.00 | 87 | 1020.7 | |
| 20260831095049 | 68 | 0.0 | 0.0 | 0.00 | 0.00 | 0.00 | 88 | 1020.6 | |
| 20260831094025 | 68 | 0.0 | 0.0 | 0.00 | 0.00 | 0.00 | 88 | 1020.7 | |
| 20260831093041 | 68 | 0.0 | 0.0 | 0.00 | 0.00 | 0.00 | 87 | 1020.7 | |
| 20260831092018 | 68 | 0.0 | 0.0 | 0.00 | 0.00 | 0.00 | 87 | 1020.8 | |
| 20260831091114 | 68 | 0.0 | 0.0 | 0.00 | 0.00 | 0.00 | 86 | 1020.7 | |
| 20260831090111 | 68 | 0.0 | 0.0 | 0.00 | 0.00 | 0.00 | 86 | 1020.7 | |
| 20260831085108 | 68 | 0.0 | 0.0 | 0.00 | 0.00 | 0.00 | 85 | 1020.8 | |
| 20260831084104 | 68 | 0.0 | 0.0 | 0.00 | 0.00 | 0.00 | 85 | 1020.6 | |
| 20260831083101 | 68 | 0.0 | 0.0 | 0.00 | 0.00 | 0.00 | 85 | 1020.6 | |
| 20260831082057 | 68 | 0.0 | 0.0 | 0.00 | 0.00 | 0.00 | 85 | 1020.6 | |
| 20260831081054 | 68 | 0.0 | 0.0 | 0.00 | 0.00 | 0.00 | 84 | 1020.7 | |
| 20260831080050 | 68 | 0.0 | 0.0 | 0.00 | 0.00 | 0.00 | 85 | 1020.8 | |
| 20260831075047 | 69 | 0.0 | 0.0 | 0.00 | 0.00 | 0.00 | 85 | 1020.7 | |
| 20260831074043 | 69 | 0.0 | 0.0 | 0.00 | 0.00 | 0.00 | 85 | 1020.6 | |
| 20260831073039 | 69 | 0.0 | 0.0 | 0.00 | 0.00 | 0.00 | 85 | 1020.6 | |
| 20260831072036 | 69 | 0.0 | 0.0 | 0.00 | 0.00 | 0.00 | 85 | 1020.6 | |
| 20260831071052 | 69 | 0.0 | 0.0 | 0.00 | 0.00 | 0.00 | 85 | 1020.8 | |
| 20260831070029 | 69 | 0.0 | 0.0 | 0.00 | 0.00 | 0.00 | 83 | 1020.6 | |
| 20260831065026 | 69 | 0.0 | 0.0 | 0.00 | 0.00 | 0.00 | 79 | 1020.7 | |
| 20260831064022 | 69 | 0.0 | 0.0 | 0.00 | 0.00 | 0.00 | 81 | 1020.8 | |
| 20260831063039 | 69 | 0.0 | 0.0 | 0.00 | 0.00 | 0.00 | 81 | 1020.8 | |
| 20260831062015 | 69 | 0.0 | 0.0 | 0.00 | 0.00 | 0.00 | 80 | 1021.0 | |
| 20260831061112 | 70 | 0.0 | 0.0 | 0.00 | 0.00 | 0.00 | 81 | 1021.0 | |
| 20260831060109 | 70 | 0.0 | 0.0 | 0.00 | 0.00 | 0.00 | 80 | 1021.0 | |
| 20260831055105 | 70 | 0.0 | 0.0 | 0.00 | 0.00 | 0.00 | 78 | 1021.0 | |
| 20260831054142 | 70 | 0.0 | 0.0 | 0.00 | 0.00 | 0.00 | 77 | 1021.2 | |
| 20260831053119 | 70 | 0.0 | 0.0 | 0.00 | 0.00 | 0.00 | 77 | 1021.1 | |
| 20260831052135 | 70 | 0.0 | 0.0 | 0.00 | 0.00 | 0.00 | 75 | 1021.1 | |
| 20260831051052 | 70 | 0.0 | 0.0 | 0.00 | 0.00 | 0.00 | 75 | 1021.1 | |
| 20260831050048 | 70 | 0.0 | 0.0 | 0.00 | 0.00 | 0.00 | 75 | 1021.1 | |
| 20260831045045 | 70 | 0.0 | 0.0 | 0.00 | 0.00 | 0.00 | 75 | 1021.2 | |
| 20260831044042 | 71 | 0.0 | 0.0 | 0.00 | 0.00 | 0.00 | 74 | 1021.4 | |
| 20260831043038 | 71 | 0.0 | 0.0 | 0.00 | 0.00 | 0.00 | 73 | 1021.3 | |
| 20260831042035 | 71 | 0.0 | 0.0 | 0.00 | 0.00 | 0.00 | 72 | 1021.2 | |
| 20260831041031 | 71 | 0.0 | 0.0 | 0.00 | 0.00 | 0.00 | 72 | 1021.3 | |
| 20260831040048 | 71 | 0.0 | 0.0 | 0.00 | 0.00 | 0.00 | 71 | 1021.4 | |
| 20260831035025 | 71 | 0.0 | 0.0 | 0.00 | 0.00 | 0.00 | 71 | 1021.3 | |
| 20260831034021 | 71 | 0.0 | 0.0 | 0.00 | 0.00 | 0.00 | 71 | 1021.4 | |
| 20260831033018 | 72 | 0.0 | 0.0 | 0.00 | 0.00 | 0.00 | 70 | 1021.4 | |
| 20260831032115 | 72 | 0.0 | 0.0 | 0.00 | 0.00 | 0.00 | 70 | 1021.5 | |
| 20260831031111 | 72 | 0.0 | 0.0 | 0.00 | 0.00 | 0.00 | 69 | 1021.5 | |
| 20260831030107 | 72 | 0.0 | 0.0 | 0.00 | 0.00 | 0.00 | 69 | 1021.5 | |
| 20260831025104 | 73 | 0.0 | 0.0 | 0.00 | 0.00 | 0.00 | 66 | 1021.6 | |
| 20260831024101 | 73 | 0.0 | 0.0 | 0.00 | 0.00 | 0.00 | 66 | 1021.6 | |
| 20260831023057 | 73 | 0.0 | 0.0 | 0.00 | 0.00 | 0.00 | 66 | 1021.6 | |
| 20260831022114 | 73 | 0.0 | 0.0 | 0.00 | 0.00 | 0.00 | 66 | 1021.7 | |
| 20260831021050 | 73 | 0.0 | 0.0 | 0.00 | 0.00 | 0.00 | 65 | 1021.6 | |
| 20260831020047 | 74 | 0.0 | 0.0 | 0.00 | 0.00 | 0.00 | 65 | 1021.5 | |
| 20260831015044 | 74 | 0.0 | 0.0 | 0.00 | 0.00 | 0.00 | 65 | 1021.7 | |
| 20260831014040 | 74 | 0.0 | 0.0 | 0.00 | 0.00 | 0.00 | 65 | 1021.5 | |
| 20260831013057 | 74 | 0.0 | 0.0 | 0.00 | 0.00 | 0.00 | 64 | 1021.4 | |
| 20260831012033 | 75 | 0.0 | 0.0 | 0.00 | 0.00 | 0.00 | 64 | 1021.2 | |
| 20260831011049 | 75 | 0.0 | 0.0 | 0.00 | 0.00 | 0.00 | 64 | 1021.1 | |
| 20260831010046 | 75 | 0.0 | 0.0 | 0.00 | 0.00 | 0.00 | 63 | 1020.9 | |
| 20260831005022 | 76 | 0.0 | 0.0 | 0.00 | 0.00 | 0.00 | 63 | 1020.7 | |
| 20260831004019 | 76 | 0.0 | 0.0 | 0.00 | 0.00 | 0.00 | 62 | 1020.8 | |
| 20260831003016 | 77 | 0.0 | 0.0 | 0.00 | 0.00 | 0.00 | 62 | 1020.8 | |
| 20260831002112 | 77 | 0.0 | 0.0 | 0.00 | 0.00 | 0.00 | 60 | 1020.7 | |
| 20260831001108 | 78 | 0.0 | 0.0 | 0.00 | 0.00 | 0.00 | 59 | 1020.6 | |
| 20260831000125 | 79 | 0.0 | 0.0 | 0.00 | 0.00 | 0.00 | 58 | 1020.7 | |
| 20260830235102 | 79 | 0.0 | 0.0 | 0.00 | 0.00 | 0.00 | 58 | 1020.7 | |
| 20260830234119 | 80 | 0.0 | 0.0 | 0.00 | 0.00 | 0.00 | 57 | 1020.9 | |
| 20260830233055 | 80 | 0.0 | 0.0 | 0.00 | 0.00 | 0.00 | 57 | 1021.0 | |
| 20260830232112 | 80 | 0.0 | 0.0 | 0.00 | 0.00 | 0.00 | 57 | 1020.9 | |
| 20260830231048 | 81 | 0.0 | 0.0 | 0.00 | 0.00 | 0.00 | 57 | 1020.8 | |
| 20260830230045 | 81 | 0.0 | 0.0 | 0.00 | 0.00 | 0.00 | 56 | 1020.8 | |
| 20260830225102 | 82 | 0.0 | 0.0 | 0.00 | 0.00 | 0.00 | 53 | 1020.8 | |
| 20260830224038 | 82 | 0.0 | 0.0 | 0.00 | 0.00 | 0.00 | 53 | 1020.8 | |
| 20260830223035 | 83 | 0.0 | 0.0 | 0.00 | 0.00 | 0.00 | 53 | 1020.6 | |
| 20260830222031 | 83 | 0.0 | 0.0 | 0.00 | 0.00 | 0.00 | 51 | 1020.5 | |
| 20260830221048 | 83 | 270 | 0.0 | 1.0 | 0.00 | 0.00 | 0.00 | 51 | 1020.7 |
| 20260830220024 | 83 | 270 | 0.0 | 1.0 | 0.00 | 0.00 | 0.00 | 51 | 1020.6 |
| 20260830215021 | 83 | 270 | 0.0 | 1.0 | 0.00 | 0.00 | 0.00 | 50 | 1020.5 |
| 20260830214038 | 84 | 0.0 | 0.0 | 0.00 | 0.00 | 0.00 | 52 | 1020.5 | |
| 20260830213115 | 84 | 0.0 | 0.0 | 0.00 | 0.00 | 0.00 | 50 | 1020.6 | |
| 20260830212111 | 84 | 0.0 | 0.0 | 0.00 | 0.00 | 0.00 | 51 | 1020.7 | |
| 20260830211108 | 84 | 270 | 0.0 | 1.0 | 0.00 | 0.00 | 0.00 | 51 | 1020.7 |
| 20260830210104 | 84 | 270 | 1.0 | 2.0 | 0.00 | 0.00 | 0.00 | 51 | 1020.8 |
| 20260830205101 | 84 | 0.0 | 0.0 | 0.00 | 0.00 | 0.00 | 50 | 1020.7 | |
| 20260830204118 | 85 | 0.0 | 0.0 | 0.00 | 0.00 | 0.00 | 52 | 1020.9 | |
| 20260830203054 | 85 | 180 | 0.0 | 1.0 | 0.00 | 0.00 | 0.00 | 48 | 1020.9 |
| 20260830202050 | 85 | 180 | 1.0 | 2.0 | 0.00 | 0.00 | 0.00 | 50 | 1020.8 |
| 20260830201045 | 84 | 90 | 1.0 | 3.0 | 0.00 | 0.00 | 0.00 | 50 | 1021.0 |
| 20260830200042 | 84 | 95 | 1.0 | 3.0 | 0.00 | 0.00 | 0.00 | 49 | 1021.1 |
| 20260830195038 | 84 | 0.0 | 0.0 | 0.00 | 0.00 | 0.00 | 50 | 1021.1 | |
| 20260830194055 | 85 | 0.0 | 0.0 | 0.00 | 0.00 | 0.00 | 48 | 1021.3 | |
| 20260830193031 | 85 | 0.0 | 0.0 | 0.00 | 0.00 | 0.00 | 49 | 1021.5 | |
| 20260830192028 | 84 | 90 | 0.0 | 2.0 | 0.00 | 0.00 | 0.00 | 49 | 1021.5 |
| 20260830191024 | 84 | 98 | 1.0 | 3.0 | 0.00 | 0.00 | 0.00 | 49 | 1021.7 |
| 20260830190021 | 85 | 90 | 0.0 | 1.0 | 0.00 | 0.00 | 0.00 | 49 | 1021.9 |
| 20260830185018 | 84 | 0.0 | 0.0 | 0.00 | 0.00 | 0.00 | 49 | 1022.0 | |
| 20260830184114 | 83 | 270 | 0.0 | 2.0 | 0.00 | 0.00 | 0.00 | 49 | 1022.2 |
| 20260830183110 | 83 | 283 | 1.0 | 3.0 | 0.00 | 0.00 | 0.00 | 49 | 1022.4 |
| 20260830182107 | 83 | 17 | 2.0 | 4.0 | 0.00 | 0.00 | 0.00 | 49 | 1022.6 |
| 20260830181103 | 83 | 270 | 0.0 | 3.0 | 0.00 | 0.00 | 0.00 | 49 | 1022.8 |
| 20260830180100 | 82 | 270 | 1.0 | 3.0 | 0.00 | 0.00 | 0.00 | 49 | 1022.9 |
| 20260830175057 | 82 | 270 | 1.0 | 2.0 | 0.00 | 0.00 | 0.00 | 50 | 1022.9 |
| 20260830174053 | 82 | 354 | 1.0 | 2.0 | 0.00 | 0.00 | 0.00 | 52 | 1023.0 |
| 20260830173050 | 81 | 344 | 1.0 | 2.0 | 0.00 | 0.00 | 0.00 | 55 | 1023.2 |
| 20260830172047 | 81 | 0 | 1.0 | 2.0 | 0.00 | 0.00 | 0.00 | 55 | 1023.4 |
| 20260830171043 | 82 | 270 | 2.0 | 3.0 | 0.00 | 0.00 | 0.00 | 51 | 1023.5 |
| 20260830170040 | 84 | 322 | 1.0 | 3.0 | 0.00 | 0.00 | 0.00 | 48 | 1023.7 |
| 20260830165036 | 83 | 0.0 | 1.0 | 0.00 | 0.00 | 0.00 | 49 | 1023.7 | |
| 20260830164032 | 85 | 0.0 | 0.0 | 0.00 | 0.00 | 0.00 | 48 | 1023.8 | |
| 20260830163049 | 85 | 270 | 0.0 | 2.0 | 0.00 | 0.00 | 0.00 | 50 | 1023.9 |
| 20260830162026 | 83 | 297 | 1.0 | 2.0 | 0.00 | 0.00 | 0.00 | 50 | 1024.1 |
| 20260830161022 | 79 | 303 | 2.0 | 3.0 | 0.00 | 0.00 | 0.00 | 56 | 1024.0 |
| 20260830160057 | 78 | 270 | 0.0 | 2.0 | 0.00 | 0.00 | 0.00 | 57 | 1024.1 |
| 20260830155114 | 77 | 0.0 | 0.0 | 0.00 | 0.00 | 0.00 | 60 | 1024.1 | |
| 20260830154110 | 77 | 0.0 | 0.0 | 0.00 | 0.00 | 0.00 | 61 | 1024.1 | |
| 20260830153107 | 77 | 0.0 | 0.0 | 0.00 | 0.00 | 0.00 | 60 | 1024.3 | |
| 20260830152124 | 77 | 0.0 | 0.0 | 0.00 | 0.00 | 0.00 | 59 | 1024.2 | |
| 20260830151100 | 77 | 315 | 1.0 | 2.0 | 0.00 | 0.00 | 0.00 | 59 | 1024.2 |
| 20260830150117 | 76 | 0.0 | 0.0 | 0.00 | 0.00 | 0.00 | 60 | 1024.2 | |
| 20260830145053 | 75 | 0.0 | 0.0 | 0.00 | 0.00 | 0.00 | 61 | 1024.1 | |
| 20260830144049 | 74 | 0.0 | 0.0 | 0.00 | 0.00 | 0.00 | 62 | 1024.2 | |
| 20260830143046 | 74 | 90 | 0.0 | 1.0 | 0.00 | 0.00 | 0.00 | 62 | 1024.2 |
| 20260830142043 | 75 | 90 | 0.0 | 1.0 | 0.00 | 0.00 | 0.00 | 63 | 1024.3 |
| 20260830141039 | 74 | 90 | 1.0 | 3.0 | 0.00 | 0.00 | 0.00 | 64 | 1024.3 |
| 20260830140037 | 74 | 0.0 | 0.0 | 0.00 | 0.00 | 0.00 | 67 | 1024.3 | |
| 20260830135033 | 74 | 0.0 | 0.0 | 0.00 | 0.00 | 0.00 | 81 | 1024.5 | |
| 20260830134029 | 73 | 0.0 | 0.0 | 0.00 | 0.00 | 0.00 | 87 | 1024.4 | |
| 20260830133104 | 72 | 0.0 | 0.0 | 0.00 | 0.00 | 0.00 | 92 | 1024.4 | |
| 20260830132041 | 72 | 0.0 | 0.0 | 0.00 | 0.00 | 0.00 | 94 | 1024.6 | |
| 20260830131018 | 71 | 0.0 | 0.0 | 0.00 | 0.00 | 0.00 | 95 | 1024.5 | |
| 20260830130135 | 71 | 0.0 | 0.0 | 0.00 | 0.00 | 0.00 | 95 | 1024.6 | |
| 20260830125111 | 70 | 0.0 | 0.0 | 0.00 | 0.00 | 0.00 | 95 | 1024.5 | |
| 20260830124108 | 70 | 0.0 | 0.0 | 0.00 | 0.00 | 0.00 | 95 | 1024.3 | |
| 20260830123104 | 69 | 0.0 | 0.0 | 0.00 | 0.00 | 0.00 | 95 | 1024.2 | |
| 20260830122101 | 69 | 0.0 | 0.0 | 0.00 | 0.00 | 0.00 | 95 | 1024.2 | |
| 20260830121058 | 69 | 0.0 | 0.0 | 0.00 | 0.00 | 0.00 | 94 | 1024.2 | |
| 20260830120054 | 69 | 0.0 | 0.0 | 0.00 | 0.00 | 0.00 | 94 | 1024.1 |